Regional Weather Roundup
Issued by NWS

Home | Current Version | Previous Version | Text Only | Print | Product List | Glossary On
Versions: 1 2 3 4 5 6 7 8 9 10 11 12 13 14 15 16 17 18 19 20 21 22 23 24 25 26 27
000
ASUS45 KCYS 200410
RWRWY

WYOMING REGIONAL WEATHER ROUNDUP
NATIONAL WEATHER SERVICE CHEYENNE WY
1000 PM MDT TUE SEP 19 2017

NOTE:  "FAIR" INDICATES FEW OR NO CLOUDS BELOW 12,000 FEET
WITH NO SIGNIFICANT WEATHER AND/OR OBSTRUCTIONS TO VISIBILITY.

WYZ001-200500-
YELLOWSTONE NATIONAL PARK

CITY           SKY/WX    TMP DP  RH WIND       PRES   REMARKS
LK YELLOWSTONE   N/A     30  28  92 W8        29.88R WCI  22
W YELLOWSTONE  NOT AVBL

$$
WYZ002>013-054>058-071-098>099-200500-
NORTHERN WYOMING

CITY           SKY/WX    TMP DP  RH WIND       PRES   REMARKS
JACKSON        CLOUDY    36  28  73 S10       29.92R WCI  28
CODY           FAIR      42  32  67 W9G17     29.82R
GREYBULL       FAIR      46  37  71 E3        29.79R
WORLAND        FAIR      42  38  85 SW3       29.79S
SHERIDAN       CLOUDY    43  38  82 NE8       29.73S
BUFFALO        MOCLDY    42  36  79 CALM      29.78R
GILLETTE       FAIR      42  38  85 SW8       29.76F
HULETT         FAIR      41  37  87 S7        29.78R
NEWCASTLE      FAIR      39  36  87 NW3       29.80S

$$
WYZ014>020-022>026-101>103-200500-
CENTRAL WYOMING

CITY           SKY/WX    TMP DP  RH WIND       PRES   REMARKS
BIG PINEY      FAIR      32  29  88 E5        29.97S WCI  27
PINEDALE       FAIR      32  32 100 E3        29.98S
DUBOIS         MOCLDY    32  27  80 NW9       29.88S WCI  24
LANDER           N/A    N/A N/A N/A MISG      29.86F
RIVERTON       FAIR      43  26  51 W8        29.86S
CASPER         FAIR      40  31  70 S14       29.85S WCI  32
DOUGLAS        FAIR      46  31  55 W10       29.83R

$$
WYZ021-027>030-104>119-200500-
SOUTHERN WYOMING

CITY           SKY/WX    TMP DP  RH WIND       PRES   REMARKS
EVANSTON       FAIR      39  28  64 W9        30.00S WCI  33
KEMMERER         N/A     32  30  93 W6        30.00S WCI  26
FORT BRIDGER   FAIR      37  31  79 W6        30.02F WCI  33
ROCK SPRINGS   FAIR      36  30  79 SW6       30.00R WCI  31
DIXON          CLOUDY    39  35  84 E6        30.05R WCI  35
RAWLINS        FAIR      37  31  78 W18       29.95S WCI  27
SARATOGA       FAIR      36  32  87 S7        29.98F WCI  30
LARAMIE        CLOUDY    39  31  72 SW13      29.99R WCI  31
CHEYENNE       FAIR      43  32  65 NW32G46   29.86S
TORRINGTON     FAIR      53  30  41 W15       29.82R
PINE BLUFFS    FAIR      50  27  40 MISG      29.81F

$$




USA.gov is the U.S. government's official web portal to all federal, state and local government web resources and services.